LNI1372 WIOO-WBGG

Flight info

Callsign LNI1372
Flight time 0h 40m
Altitude 16000
Route PAPSA PAPSA1E
Aircraft B738/M-SCB1D1A1R2/LB1

Departure

Time 2026-04-23 11:36
Airport Supadio International Airport (WIOO)

Arrival

Time 2026-04-23 12:17
Airport Kuching International Airport (WBGG)
Time Latitude Longitude Altitude Speed Heading
2026-04-23 11:28 -0.14646 109.40356 19 ft 0 kts 73°
2026-04-23 11:31 -0.14652 109.40340 19 ft 4 kts 56°
2026-04-23 11:31 -0.14670 109.40324 21 ft 4 kts 12°
2026-04-23 11:31 -0.14691 109.40325 19 ft 1 kts 338°
2026-04-23 11:32 -0.14692 109.40325 19 ft 0 kts 338°
2026-04-23 11:33 -0.14691 109.40325 19 ft 0 kts 338°
2026-04-23 11:33 -0.14685 109.40323 19 ft 3 kts 338°
2026-04-23 11:33 -0.14648 109.40307 19 ft 9 kts 338°
2026-04-23 11:34 -0.14565 109.40273 19 ft 16 kts 337°
2026-04-23 11:34 -0.14464 109.40232 20 ft 10 kts 339°
2026-04-23 11:34 -0.14425 109.40193 19 ft 9 kts 272°
2026-04-23 11:34 -0.14432 109.40124 20 ft 11 kts 302°
2026-04-23 11:35 -0.14364 109.40093 19 ft 11 kts 339°
2026-04-23 11:35 -0.14288 109.40063 20 ft 12 kts 336°
2026-04-23 11:35 -0.14211 109.40010 20 ft 15 kts 311°
2026-04-23 11:35 -0.14179 109.40032 23 ft 10 kts 140°
2026-04-23 11:36 -0.14241 109.40044 21 ft 11 kts 162°
2026-04-23 11:36 -0.14420 109.40116 18 ft 72 kts 158°
2026-04-23 11:36 -0.15236 109.40448 135 ft 169 kts 159°
2026-04-23 11:36 -0.16475 109.40944 815 ft 214 kts 160°
2026-04-23 11:37 -0.17806 109.41574 2127 ft 211 kts 144°
2026-04-23 11:37 -0.18671 109.42759 3040 ft 223 kts 106°
2026-04-23 11:37 -0.18579 109.44345 3602 ft 241 kts 65°
2026-04-23 11:37 -0.17423 109.45551 4468 ft 250 kts 29°
2026-04-23 11:38 -0.15755 109.46266 5091 ft 270 kts 25°
2026-04-23 11:38 -0.14030 109.47100 6145 ft 278 kts 28°
2026-04-23 11:38 -0.12329 109.48031 7310 ft 281 kts 30°
2026-04-23 11:38 -0.10656 109.49043 8357 ft 289 kts 32°
2026-04-23 11:39 -0.08929 109.50163 9448 ft 295 kts 34°
2026-04-23 11:39 -0.07237 109.51308 10458 ft 302 kts 35°
2026-04-23 11:39 -0.05442 109.52555 10979 ft 327 kts 35°
2026-04-23 11:39 -0.03493 109.53813 11758 ft 338 kts 32°
2026-04-23 11:40 -0.01494 109.55088 12735 ft 343 kts 34°
2026-04-23 11:40 0.00479 109.56446 13759 ft 345 kts 36°
2026-04-23 11:40 0.02389 109.57855 14892 ft 338 kts 37°
2026-04-23 11:40 0.04250 109.59276 16020 ft 335 kts 38°
2026-04-23 11:41 0.06092 109.60699 17082 ft 334 kts 38°
2026-04-23 11:41 0.07992 109.62034 17559 ft 334 kts 27°
2026-04-23 11:41 0.10205 109.62723 17842 ft 336 kts 14°
2026-04-23 11:41 0.12435 109.63482 17830 ft 339 kts 24°
2026-04-23 11:42 0.12936 109.63708 17832 ft 338 kts 26°
2026-04-23 11:42 0.14351 109.64375 17823 ft 337 kts 26°
2026-04-23 11:42 0.16450 109.65395 17821 ft 336 kts 26°
2026-04-23 11:42 0.18455 109.66374 17826 ft 336 kts 27°
2026-04-23 11:43 0.20558 109.67393 18616 ft 336 kts 26°
2026-04-23 11:43 0.22652 109.68400 17753 ft 337 kts 26°
2026-04-23 11:43 0.23098 109.68613 17772 ft 336 kts 26°
2026-04-23 11:43 0.24882 109.69461 17809 ft 334 kts 26°
2026-04-23 11:44 0.26979 109.70456 18578 ft 337 kts 25°
2026-04-23 11:44 0.28370 109.71113 17768 ft 344 kts 26°
2026-04-23 11:44 0.29462 109.71628 17798 ft 339 kts 26°
2026-04-23 11:44 0.30774 109.72245 17839 ft 334 kts 26°
2026-04-23 11:45 0.32874 109.73232 17829 ft 333 kts 26°
2026-04-23 11:45 0.34987 109.74226 17851 ft 337 kts 26°
2026-04-23 11:45 0.37112 109.75226 17851 ft 339 kts 26°
2026-04-23 11:45 0.39251 109.76232 17852 ft 339 kts 26°
2026-04-23 11:46 0.41392 109.77238 17852 ft 339 kts 26°
2026-04-23 11:46 0.43528 109.78242 17850 ft 339 kts 26°
2026-04-23 11:46 0.45669 109.79247 17851 ft 339 kts 26°
2026-04-23 11:46 0.47798 109.80248 17849 ft 338 kts 26°
2026-04-23 11:47 0.49900 109.81235 17848 ft 337 kts 26°
2026-04-23 11:47 0.52018 109.82229 17850 ft 336 kts 26°
2026-04-23 11:47 0.54138 109.83225 17848 ft 336 kts 26°
2026-04-23 11:47 0.56251 109.84216 17850 ft 336 kts 26°
2026-04-23 11:48 0.58362 109.85207 17856 ft 335 kts 26°
2026-04-23 11:48 0.60470 109.86197 17856 ft 335 kts 26°
2026-04-23 11:48 0.62581 109.87189 17858 ft 334 kts 26°
2026-04-23 11:48 0.64690 109.88179 17858 ft 334 kts 26°
2026-04-23 11:49 0.66795 109.89168 17855 ft 335 kts 26°
2026-04-23 11:49 0.68910 109.90162 17856 ft 335 kts 26°
2026-04-23 11:49 0.71017 109.91152 17855 ft 335 kts 26°
2026-04-23 11:49 0.73124 109.92143 17865 ft 336 kts 26°
2026-04-23 11:50 0.75239 109.93137 17865 ft 336 kts 26°
2026-04-23 11:50 0.77356 109.94131 17862 ft 337 kts 26°
2026-04-23 11:50 0.79449 109.95114 17863 ft 337 kts 26°
2026-04-23 11:50 0.81569 109.96111 17865 ft 337 kts 26°
2026-04-23 11:51 0.83689 109.97107 17863 ft 337 kts 26°
2026-04-23 11:51 0.85814 109.98105 17856 ft 337 kts 26°
2026-04-23 11:51 0.87934 109.99101 17870 ft 337 kts 26°
2026-04-23 11:51 0.90056 110.00098 17873 ft 337 kts 26°
2026-04-23 11:52 0.92174 110.01093 17870 ft 337 kts 26°
2026-04-23 11:52 0.94296 110.02090 17874 ft 336 kts 26°
2026-04-23 11:52 0.96414 110.03085 17877 ft 336 kts 26°
2026-04-23 11:52 0.98531 110.04080 17874 ft 337 kts 26°
2026-04-23 11:53 1.00657 110.05078 17872 ft 337 kts 26°
2026-04-23 11:53 1.02777 110.06074 17870 ft 337 kts 26°
2026-04-23 11:53 1.04897 110.07070 17870 ft 336 kts 26°
2026-04-23 11:53 1.07015 110.08067 17874 ft 336 kts 26°
2026-04-23 11:54 1.09132 110.09062 17815 ft 337 kts 26°
2026-04-23 11:54 1.11234 110.10049 17545 ft 337 kts 26°
2026-04-23 11:54 1.13350 110.11043 17296 ft 335 kts 26°
2026-04-23 11:54 1.15458 110.12034 17047 ft 336 kts 26°
2026-04-23 11:55 1.17583 110.13027 16800 ft 337 kts 24°
2026-04-23 11:55 1.19856 110.13554 16526 ft 339 kts
2026-04-23 11:55 1.22170 110.13160 16301 ft 340 kts 339°
2026-04-23 11:55 1.24312 110.12165 16085 ft 339 kts 334°
2026-04-23 11:56 1.26425 110.11097 15840 ft 339 kts 333°
2026-04-23 11:56 1.28506 110.10057 15604 ft 338 kts 334°
2026-04-23 11:56 1.30626 110.09045 15359 ft 337 kts 339°
2026-04-23 11:56 1.32877 110.08415 15123 ft 335 kts 348°
2026-04-23 11:57 1.35158 110.07973 14896 ft 333 kts 350°
2026-04-23 11:57 1.37452 110.07745 14643 ft 332 kts
2026-04-23 11:57 1.39615 110.08394 14430 ft 329 kts 29°
2026-04-23 11:57 1.41393 110.09828 14191 ft 326 kts 51°
2026-04-23 11:58 1.42542 110.11758 13966 ft 324 kts 70°
2026-04-23 11:58 1.43019 110.13952 13754 ft 322 kts 82°
2026-04-23 11:58 1.43305 110.16170 13503 ft 321 kts 83°
2026-04-23 11:58 1.43555 110.18364 13256 ft 320 kts 83°
2026-04-23 11:59 1.43804 110.20572 13001 ft 319 kts 83°
2026-04-23 11:59 1.44057 110.22773 12754 ft 318 kts 83°
2026-04-23 11:59 1.44316 110.24972 12496 ft 318 kts 83°
2026-04-23 11:59 1.44580 110.27158 12249 ft 316 kts 83°
2026-04-23 12:00 1.44843 110.29331 12002 ft 314 kts 83°
2026-04-23 12:00 1.45109 110.31493 11759 ft 313 kts 83°
2026-04-23 12:00 1.45375 110.33650 11522 ft 312 kts 83°
2026-04-23 12:00 1.45640 110.35802 11283 ft 311 kts 83°
2026-04-23 12:01 1.45905 110.37941 11050 ft 311 kts 83°
2026-04-23 12:01 1.46081 110.39364 10894 ft 310 kts 83°
2026-04-23 12:01 1.46434 110.42208 10588 ft 308 kts 84°
2026-04-23 12:01 1.46707 110.44326 10353 ft 308 kts 83°
2026-04-23 12:02 1.46972 110.46461 10124 ft 308 kts 84°
2026-04-23 12:02 1.47144 110.47869 9977 ft 308 kts 83°
2026-04-23 12:02 1.47403 110.49984 9746 ft 302 kts 83°
2026-04-23 12:02 1.47654 110.52025 9479 ft 290 kts 83°
2026-04-23 12:03 1.47897 110.53989 9220 ft 281 kts 84°
2026-04-23 12:03 1.48134 110.55906 8969 ft 276 kts 83°
2026-04-23 12:03 1.48368 110.57796 8723 ft 275 kts 84°
2026-04-23 12:03 1.48603 110.59706 8489 ft 278 kts 84°
2026-04-23 12:04 1.48840 110.61624 8253 ft 279 kts 84°
2026-04-23 12:04 1.49079 110.63547 8016 ft 277 kts 84°
2026-04-23 12:04 1.49316 110.65470 7785 ft 281 kts 84°
2026-04-23 12:04 1.49555 110.67398 7556 ft 284 kts 84°
2026-04-23 12:05 1.49807 110.69338 7310 ft 279 kts 79°
2026-04-23 12:05 1.50564 110.71069 7077 ft 275 kts 51°
2026-04-23 12:05 1.52016 110.72194 7101 ft 268 kts 25°
2026-04-23 12:05 1.53827 110.72608 7103 ft 271 kts 360°
2026-04-23 12:06 1.55670 110.72210 7110 ft 276 kts 334°
2026-04-23 12:06 1.57165 110.71015 7110 ft 278 kts 307°
2026-04-23 12:06 1.58468 110.67436 7140 ft 281 kts 282°
2026-04-23 12:07 1.58881 110.65521 7136 ft 281 kts 281°
2026-04-23 12:07 1.59285 110.63622 7130 ft 277 kts 282°
2026-04-23 12:07 1.59690 110.61753 7112 ft 273 kts 282°
2026-04-23 12:07 1.60099 110.59897 7115 ft 275 kts 282°
2026-04-23 12:08 1.60511 110.58055 7105 ft 275 kts 282°
2026-04-23 12:08 1.60932 110.56196 7109 ft 275 kts 282°
2026-04-23 12:08 1.61357 110.54321 7115 ft 276 kts 282°
2026-04-23 12:08 1.61781 110.52449 7103 ft 275 kts 282°
2026-04-23 12:09 1.62203 110.50581 7031 ft 277 kts 282°
2026-04-23 12:09 1.62632 110.48679 6807 ft 281 kts 281°
2026-04-23 12:09 1.62658 110.46769 6733 ft 273 kts 257°
2026-04-23 12:09 1.62074 110.44969 6373 ft 273 kts 248°
2026-04-23 12:10 1.61399 110.43196 6030 ft 273 kts 248°
2026-04-23 12:10 1.60735 110.41420 5689 ft 272 kts 249°
2026-04-23 12:10 1.60083 110.39647 5359 ft 271 kts 249°
2026-04-23 12:10 1.59461 110.37944 5044 ft 270 kts 249°
2026-04-23 12:11 1.58818 110.36208 4731 ft 269 kts 249°
2026-04-23 12:11 1.58164 110.34457 4402 ft 268 kts 248°
2026-04-23 12:11 1.57509 110.32711 4071 ft 267 kts 249°
2026-04-23 12:11 1.56863 110.30984 3861 ft 261 kts 249°
2026-04-23 12:12 1.56238 110.29309 3734 ft 253 kts 249°
2026-04-23 12:12 1.55632 110.27687 3617 ft 245 kts 249°
2026-04-23 12:12 1.55047 110.26119 3483 ft 236 kts 249°
2026-04-23 12:12 1.54372 110.24653 3214 ft 229 kts 236°
2026-04-23 12:13 1.53319 110.23542 2994 ft 215 kts 214°
2026-04-23 12:13 1.52009 110.22938 2759 ft 202 kts 194°
2026-04-23 12:13 1.50654 110.22806 2528 ft 191 kts 176°
2026-04-23 12:13 1.49370 110.23034 2315 ft 185 kts 162°
2026-04-23 12:14 1.48224 110.23543 2074 ft 176 kts 147°
2026-04-23 12:14 1.47299 110.24285 1877 ft 165 kts 133°
2026-04-23 12:14 1.46631 110.25167 1699 ft 154 kts 118°
2026-04-23 12:14 1.46218 110.26097 1565 ft 141 kts 106°
2026-04-23 12:15 1.46022 110.27036 1364 ft 136 kts 93°
2026-04-23 12:15 1.46025 110.27972 1222 ft 137 kts 82°
2026-04-23 12:15 1.46214 110.28902 1058 ft 134 kts 71°
2026-04-23 12:15 1.46500 110.29794 872 ft 135 kts 67°
2026-04-23 12:16 1.46876 110.30681 706 ft 142 kts 65°
2026-04-23 12:16 1.47257 110.31594 553 ft 142 kts 68°
2026-04-23 12:16 1.47622 110.32512 384 ft 143 kts 68°
2026-04-23 12:16 1.47998 110.33445 174 ft 143 kts 69°
2026-04-23 12:17 1.48337 110.34292 90 ft 108 kts 68°
2026-04-23 12:17 1.48543 110.34808 74 ft 68 kts 69°
2026-04-23 12:17 1.48690 110.35180 73 ft 36 kts 68°
2026-04-23 12:17 1.48761 110.35285 71 ft 11 kts 358°
2026-04-23 12:18 1.48847 110.35255 66 ft 17 kts 338°
2026-04-23 12:18 1.48881 110.35211 64 ft 7 kts 252°
2026-04-23 12:18 1.48863 110.35158 66 ft 9 kts 250°
2026-04-23 12:18 1.48836 110.35089 70 ft 13 kts 248°
2026-04-23 12:19 1.48796 110.34988 69 ft 18 kts 248°
2026-04-23 12:19 1.48744 110.34859 68 ft 22 kts 248°
2026-04-23 12:19 1.48686 110.34707 68 ft 25 kts 249°
2026-04-23 12:19 1.48618 110.34535 71 ft 28 kts 248°
2026-04-23 12:20 1.48548 110.34361 76 ft 19 kts 248°
2026-04-23 12:20 1.48530 110.34255 74 ft 14 kts 307°
2026-04-23 12:20 1.48593 110.34278 75 ft 4 kts 63°
2026-04-23 12:20 1.48623 110.34297 68 ft 8 kts
2026-04-23 12:21 1.48668 110.34281 71 ft 2 kts 338°
2026-04-23 12:21 1.48675 110.34278 77 ft 1 kts 338°